This is the latest recevied weather packets stored in our database for station/object IT9KWW-13. If no packets are shown the sender has not sent any weather packets the latest 1 day(s).
| Time | Temp. | Humidity | Pressure | Rain* | Wind** | Luminosity | Snow |
|---|---|---|---|---|---|---|---|
| 1778040297 | 12.78° C | 90% | 1011.8 hPa | 0 mm | 0.89 m/s, 315° | - | - |
| 1778040177 | 12.78° C | 90% | 1011.8 hPa | 0 mm | 1.34 m/s, 292° | - | - |
| 1778040058 | 12.78° C | 90% | 1011.8 hPa | 0 mm | 1.34 m/s, 292° | - | - |
| 1778039937 | 12.78° C | 91% | 1011.8 hPa | 0 mm | 1.34 m/s, 315° | - | - |
| 1778039817 | 13.33° C | 91% | 1011.8 hPa | 0 mm | 0.89 m/s, 292° | - | - |
| 1778039698 | 13.33° C | 91% | 1011.8 hPa | 0 mm | 1.34 m/s, 292° | - | - |
| 1778039577 | 13.33° C | 92% | 1011.8 hPa | 0 mm | 1.34 m/s, 292° | - | - |
| 1778039457 | 13.33° C | 92% | 1011.8 hPa | 0 mm | 0.89 m/s, 292° | - | - |
| 1778039338 | 13.33° C | 92% | 1011.8 hPa | 0 mm | 1.34 m/s, 292° | - | - |
| 1778039217 | 13.33° C | 92% | 1011.8 hPa | 0 mm | 1.34 m/s, 292° | - | - |
| 1778039097 | 13.33° C | 92% | 1011.8 hPa | 0 mm | 1.34 m/s, 270° | - | - |
| 1778038978 | 13.33° C | 92% | 1011.8 hPa | 0 mm | 1.34 m/s, 270° | - | - |
| 1778038857 | 13.33° C | 92% | 1011.8 hPa | 0 mm | 0.89 m/s, 270° | - | - |
| 1778038737 | 13.33° C | 92% | 1011.8 hPa | 0 mm | 0.89 m/s, 248° | - | - |
| 1778038618 | 13.33° C | 92% | 1011.8 hPa | 0 mm | 2.24 m/s, 248° | - | - |
| 1778038497 | 13.33° C | 93% | 1011.8 hPa | 0 mm | 1.34 m/s, 315° | - | - |
| 1778038377 | 13.33° C | 93% | 1011.8 hPa | 0 mm | 1.79 m/s, 315° | - | - |
| 1778038258 | 13.33° C | 93% | 1011.8 hPa | 0 mm | 0.89 m/s, 292° | - | - |
| 1778038137 | 13.33° C | 93% | 1011.8 hPa | 0 mm | 0.89 m/s, 292° | - | - |
| 1778038017 | 13.33° C | 93% | 1011.8 hPa | 0 mm | 1.79 m/s, 315° | - | - |
| 1778037898 | 12.78° C | 93% | 1011.8 hPa | 0 mm | 1.34 m/s, 292° | - | - |
| 1778037777 | 12.78° C | 93% | 1011.8 hPa | 0 mm | 2.24 m/s, 270° | - | - |
| 1778037657 | 12.78° C | 94% | 1011.8 hPa | 0 mm | 1.79 m/s, 292° | - | - |
| 1778037538 | 12.78° C | 94% | 1011.8 hPa | 0 mm | 0.89 m/s, 292° | - | - |
| 1778037417 | 12.78° C | 94% | 1011.8 hPa | 0 mm | 1.79 m/s, 292° | - | - |
* Rain latest hour (hover to see other rain measurements)
** Current wind speed in m/s (hover to see current wind gust speed)